Showing default

EXPRESS 103, 45985

Orbit data source: Space-Track

EXPRESS 103, 45985 is a payload satellite owned by KosSvyaz (CIS) in GEO that was launched on Thu, 30 Jul 2020 UTC via a PROTON-M/BRIZ-M launch vehicle from the Tyuratam Missile And Space Complex (TTMTR). Payloads include a variety of satellites, spacecraft, and rockets equipped with specific instruments for various scientific and technological missions. These include communications satellites like Starlink; space stations such as the ISS; scientific satellites like the Hubble; Earth observation satellites from companies like Planet Labs, Umbra, and HawkEye 360; GPS; miniature CubeSats for education and research; and military/defense satellites.

Not visible in the next 10 days
EXPRESS 103 details
Identifier
45985, 2020-053A
Orbit
GEO
Last TLE update10 hours ago
Origin
Flag of CISKosSvyaz (CIS)
ManufacturerResehetnev ISS
MissionOperational Commercial Communications
Bus & MotorEKSPRESS-1000N, AOCS
Mass2,280 kg wet, ~1,800 kg dry
Launch date (UTC)
2020-07-30 (4 years ago)
Launch vehicle
PROTON-M/BRIZ-M
Launch site
Tyuratam Missile And Space Complex (TTMTR)
Object type
Payload
Rocket body
Debris
Shape & HBRBox + 2 Pan, Unknown HBR
Radar Cross Section16.987 m², Large (>1 m²)

Expand to show TLE details & history

TLE from 10 hours ago
0 EXPRESS 103
1 45985U 20053A   24336.88382559 -.00000253  00000-0  00000-0 0  9998
2 45985   0.0168 307.7895 0000440 223.1040 315.0326  1.00271304 16013
Epoch: 2024-12-01T21:12Z
Definitive object data (Epoch: 2024-12-01T21:12:42.53Z)
Latitude0.00524°
Longitude96.49897°
Altitude35,784.918 km
Speed3.075 km/s
True Right ascension08h 23m 34s
True Declination0° 00' 19"
Sunlit
Object was in daylight at TLE epoch
Visualization TLE readout
Latitude-0.02238°
Longitude-108.08825°
Altitude35,786.909 km
Speed3.075 km/s
Apparent Right ascension18h 36m 21s
Apparent Declination-4° 59' 46"
Sunlit
Object is in daylight
Visualization observer readout
Local Sidereal Time05:18:43
Azimuth328.3° NNW
Elevation-50.943°
Doppler factor1
Orbital elements
Apogee altitude35,789.655 km
Perigee altitude35,785.945 km
Semi-major axis42,165.937 km
Eccentricity0.000044
Inclination0.0168°
RAAN307.7895°
Arg. of periapsis223.104°
True anomaly315.02904°
Mean anomaly315.0326°
Eccentric anomaly315.03082°
Mean motion0.25067 °/min
BSTARUnknown
Orbital period1436.16 mins
Loading historical data...
45985 neighbors
Authenticating...
Loading maneuver chart data...
Loading historical data...
Loading historical data...
Loading historical data...
Loading historical data...
Loading historical data...
Loading historical data...
Loading historical data...
Other satellites on launch #53 in the year 2020 (2020-07-30 UTC)

EXPRESS 103 Visibility forecast

Observer location: undefined°, undefined

EXPRESS 103 is not visible in the next 10 days
Span
Click to sort rows by Start time (UTC) header in descending order
Start Az.
Max El. time (UTC)
Max El. Az.
Max El.
End time (UTC)
End Az.
|